Wind_Speed
12 14 14 15 16 16 16 17 18 19 20 21 22 23 23 23 23 25 26 27 27 28 29 31 33 33 33 32 30 34 33 32 31 31 32 32 32 34 34 34 34 34 31 32 32 34 35
14 15 16 17 18 19 19 21 22 24 24 26 27 27 27 28 28 29 30 31 31 32 33 33 36 36 35 32 35 37 37 37 36 36 35 36 37 39 40 39 38 40 37 37 34 34 38
14 15 16 19 20 22 23 25 26 27 28 29 31 32 34 33 32 34 35 34 35 36 37 36 37 37 35 36 36 37 39 40 40 40 41 41 41 42 45 42 40 43 44 42 36 35 41
13 15 17 19 22 24 25 27 29 31 31 32 33 35 36 39 39 39 40 40 39 39 40 41 39 38 35 34 37 38 41 41 41 42 43 44 46 47 46 47 44 46 46 43 38 40 43
13 16 18 20 23 25 26 27 28 29 30 32 34 35 38 39 41 44 46 45 44 42 43 43 41 41 38 37 37 38 39 41 42 42 43 45 46 47 48 46 45 47 46 49 47 44 45
12 16 19 23 26 30 32 33 34 36 36 36 34 33 36 40 41 42 45 48 48 46 47 47 45 44 42 41 41 41 41 43 43 45 45 45 48 51 50 46 47 46 50 49 48 50 43
15 18 21 24 27 31 36 40 42 39 38 38 36 34 35 36 36 37 40 45 47 47 46 46 48 48 48 45 44 44 44 44 44 43 43 46 50 50 45 47 50 50 51 52 53 51 50
17 20 24 28 30 33 37 42 46 47 43 41 41 39 38 40 39 36 37 40 41 44 39 43 45 45 44 45 45 45 44 45 46 46 48 48 46 46 46 45 48 48 49 51 50 52 54
21 25 27 32 36 38 40 46 48 51 48 43 40 40 42 42 42 43 41 41 41 41 40 38 42 44 43 42 43 45 46 45 45 44 44 48 47 48 47 48 49 48 51 50 52 52 55
28 30 32 36 39 39 42 48 52 53 50 47 45 43 43 44 44 44 45 45 45 44 44 44 45 42 40 42 43 43 44 45 46 48 49 53 49 51 52 50 49 53 47 53 51 51 53
33 35 38 39 42 43 47 53 55 52 49 47 49 50 45 43 44 48 49 49 49 49 52 51 51 50 48 49 50 51 54 56 57 58 55 53 53 52 52 53 56 55 53 53 51 51 53
35 37 41 42 44 45 48 54 56 56 55 53 52 53 48 45 46 48 48 51 54 56 64 61 61 63 64 63 64 63 60 59 58 61 63 61 62 62 58 57 56 57 54 53 54 54 61
37 39 42 43 43 46 51 53 53 52 54 54 52 54 53 50 50 53 56 59 62 66 68 71 70 71 73 73 73 72 70 70 67 67 67 67 66 65 61 59 57 56 55 56 58 62 63
40 41 43 44 47 50 52 51 51 51 49 48 51 53 54 55 58 62 65 68 72 73 77 78 79 80 81 81 81 79 76 74 73 70 72 71 70 68 67 61 58 58 56 57 59 57 50
40 42 45 47 49 54 54 54 55 54 53 53 52 55 57 61 65 69 73 77 80 84 86 87 87 89 85 84 81 79 79 77 72 68 65 61 66 67 67 62 57 57 64 52 54 55 55
41 44 47 50 56 55 55 57 57 57 57 59 61 63 65 69 73 77 81 85 91 92 93 92 93 90 88 83 81 82 76 77 74 64 61 63 63 60 63 60 57 57 54 57 58 59 61
43 46 51 56 57 57 58 60 61 63 64 66 67 71 73 77 80 86 89 92 97 99 100 98 95 94 90 87 81 79 77 72 72 72 66 60 61 59 61 62 55 56 56 59 60 61 60
47 52 55 58 59 60 62 64 65 67 71 74 76 79 84 87 93 99 102 104 108 106 103 99 94 88 80 73 68 65 62 60 56 64 61 58 51 55 58 54 58 61 61 61 61 61 58
51 56 60 62 62 65 67 68 71 75 80 82 86 88 93 97 102 105 107 104 100 96 84 72 63 54 48 50 51 47 38 45 47 44 42 48 53 53 58 59 60 61 56 57 55 50 45
56 59 61 64 66 68 71 74 78 83 87 91 94 98 104 107 102 94 84 78 70 62 53 36 41 34 35 33 35 40 40 47 43 38 32 35 39 30 32 37 33 32 41 45 48 54 52
59 62 65 67 68 73 78 81 86 90 94 96 100 106 102 91 79 71 61 55 47 38 33 26 24 24 31 31 32 30 41 41 42 44 39 47 49 42 39 35 39 35 26 39 39 37 39
62 66 69 70 73 79 83 88 93 96 99 103 103 94 88 73 65 58 50 32 30 32 25 22 27 22 34 35 32 34 29 32 44 37 41 43 54 58 56 51 50 42 31 32 32 34 35
65 67 71 74 80 84 89 93 96 100 101 92 86 73 63 50 49 44 38 35 26 23 22 24 23 28 26 35 33 31 31 27 33 29 21 23 25 28 34 39 33 40 44 44 36 39 37
67 71 74 79 84 89 93 96 99 94 86 80 66 54 49 42 38 35 32 28 21 16 23 22 31 32 35 35 29 31 30 29 33 30 26 27 26 25 25 27 36 38 40 44 44 41 46
69 73 78 83 87 91 95 94 87 79 71 57 51 48 44 42 39 35 31 31 16 15 28 31 31 35 35 25 28 26 16 20 14 14 25 22 20 23 20 20 30 34 33 34 36 35 36
72 77 82 85 89 91 88 83 73 65 56 48 47 46 45 43 42 43 31 24 23 25 25 28 32 25 26 22 21 23 17 19 19 13 11 12 16 18 20 23 24 23 27 25 23 28 29
75 80 82 86 88 87 81 71 63 54 47 43 43 42 41 40 38 39 39 29 27 27 23 28 20 24 18 18 16 15 17 18 12 8 12 15 13 19 22 24 27 27 27 25 27 27 27
77 80 83 85 85 80 70 61 53 44 41 42 39 40 39 37 34 33 32 30 22 25 27 26 20 20 18 15 12 14 17 17 17 15 15 15 21 22 27 26 31 28 30 32 30 28 28
76 80 82 82 76 67 60 53 43 39 42 41 39 38 38 36 34 30 28 28 26 25 20 18 18 20 17 13 15 17 16 22 23 20 22 23 24 24 25 25 27 26 27 25 27 20 18
Wind_Direction
342 343 336 334 333 330 323 317 314 310 306 304 302 298 294 290 288 286 286 286 286 285 283 281 279 275 273 271 271 270 272 270 269 269 269 269 271 271 270 270 272 274 271 268 268 272 273
327 333 328 322 319 316 314 309 307 304 302 300 298 295 293 293 291 288 287 287 288 287 287 284 281 276 274 276 273 271 272 273 274 275 273 273 273 274 274 274 273 276 275 274 269 272 272
327 324 319 314 311 309 305 303 299 295 291 290 290 291 290 286 286 286 286 285 285 287 288 286 284 279 276 280 273 271 271 270 272 272 274 275 274 273 272 274 275 274 275 273 275 273 273
324 322 320 319 315 310 307 307 303 298 293 289 287 287 286 287 287 286 285 285 285 285 285 286 285 282 282 280 278 274 272 271 269 270 272 273 273 273 275 274 276 271 272 276 277 269 269
340 338 336 336 336 329 322 318 315 311 304 299 295 292 289 286 284 284 284 282 281 283 286 285 282 283 282 280 280 278 277 274 273 274 273 274 274 275 275 275 274 274 276 273 267 265 264
345 344 341 340 341 339 333 326 321 316 310 304 298 295 296 292 288 286 285 282 280 279 282 284 283 285 284 279 275 277 276 276 276 273 273 274 274 273 273 279 277 275 271 269 270 273 267
337 332 332 333 336 336 338 336 331 320 313 311 309 306 302 298 294 290 287 288 287 282 281 281 285 286 283 279 276 276 274 275 275 274 275 270 269 273 276 271 270 270 272 275 277 273 272
328 329 326 324 324 327 328 329 329 327 318 308 308 308 308 306 303 297 292 290 286 282 276 281 285 287 286 285 281 276 275 277 276 274 271 271 269 271 271 270 269 266 269 271 272 273 274
319 325 325 326 325 324 326 326 325 324 320 312 306 309 309 306 306 304 301 296 292 286 283 278 277 282 282 277 273 272 273 271 272 269 267 266 269 267 267 268 269 269 267 268 269 268 269
309 314 320 322 323 325 325 323 324 324 319 312 310 308 304 303 303 300 300 300 298 296 290 286 285 285 280 276 276 275 271 270 268 269 268 267 267 266 265 265 268 263 270 267 270 269 269
306 308 311 313 317 321 324 325 324 322 319 313 309 309 307 299 297 298 296 294 294 293 293 293 291 288 284 278 275 271 271 270 269 268 266 269 267 266 265 271 271 269 269 270 270 270 268
306 307 309 312 314 319 324 322 322 321 317 314 309 310 306 303 300 297 293 291 291 292 292 291 291 289 286 285 283 280 278 276 273 271 270 268 269 267 271 269 269 269 272 273 272 271 265
306 309 309 309 316 322 322 323 323 323 320 316 311 308 304 301 298 297 295 294 293 291 292 290 289 287 284 282 280 280 279 278 278 276 274 273 271 272 273 274 274 275 273 271 269 266 269
308 308 310 317 319 320 319 323 323 322 321 317 309 304 299 296 295 294 293 293 292 292 290 289 286 285 284 284 283 283 282 281 280 279 277 276 274 275 269 274 276 273 271 270 270 274 280
307 311 314 317 316 316 318 319 319 319 317 316 308 299 295 294 293 293 292 291 289 288 286 284 283 283 283 282 281 282 282 282 283 282 280 280 277 275 275 275 272 273 270 275 267 264 261
310 314 314 313 314 313 316 316 315 312 312 314 312 304 298 295 292 291 289 287 288 286 286 287 287 287 287 288 288 288 286 285 283 279 278 279 275 276 277 276 275 273 270 267 266 264 266
309 310 312 313 311 311 313 314 312 310 307 306 305 302 298 297 293 289 286 284 284 287 290 293 293 293 291 289 285 283 282 280 278 278 276 273 268 271 263 270 267 262 261 261 259 258 258
308 309 311 308 309 311 312 312 310 308 308 305 303 300 298 294 291 289 290 291 292 295 296 293 290 288 285 282 276 272 269 266 261 265 264 260 264 259 257 260 255 252 253 253 254 254 253
308 309 309 310 311 310 308 308 309 307 305 303 300 298 295 292 296 298 299 299 298 296 293 291 288 286 279 271 269 267 265 261 260 260 261 259 259 264 259 257 255 253 256 257 256 252 245
309 311 312 311 309 309 308 307 307 306 303 301 299 299 300 300 302 303 303 299 298 296 295 291 293 284 291 288 272 270 265 256 250 254 240 245 241 233 255 254 245 256 259 258 255 244 247
314 313 311 310 309 308 307 306 306 305 304 302 303 306 307 310 311 307 302 301 300 296 298 302 288 290 295 301 297 286 259 254 253 253 249 243 240 238 239 247 246 244 255 262 266 255 251
314 312 310 308 307 306 306 306 307 306 305 306 310 314 315 317 313 312 311 302 286 295 299 315 293 290 293 299 304 312 279 265 261 261 264 260 258 269 273 266 258 253 243 246 256 267 262
311 308 307 307 307 307 307 309 310 311 313 316 320 321 323 326 321 320 317 302 289 301 301 296 302 287 297 298 302 299 283 272 281 279 249 244 267 256 258 246 243 239 242 254 240 245 240
306 305 306 307 308 310 311 311 315 317 319 321 325 327 334 337 333 335 338 324 283 288 294 305 305 305 305 306 299 302 289 283 282 277 257 246 263 260 270 280 277 267 259 253 250 250 251
304 307 308 309 311 312 314 318 320 322 324 326 330 336 342 352 342 334 332 335 308 304 315 309 306 306 304 297 303 310 324 319 286 288 266 253 252 265 277 280 280 262 263 267 269 270 271
306 309 310 313 315 317 320 321 322 323 324 328 331 335 337 342 344 347 327 327 314 302 307 310 303 307 318 318 297 310 307 329 304 279 271 262 257 269 283 291 277 273 272 270 265 265 270
308 312 315 317 319 320 321 322 323 323 324 327 326 327 330 335 335 340 339 316 303 317 320 326 310 312 312 313 298 294 319 316 324 307 289 267 272 276 278 285 279 273 269 274 269 270 265
311 316 319 320 321 321 322 321 322 323 329 330 323 323 323 329 333 331 337 344 323 318 318 322 320 319 313 307 299 299 294 297 303 299 297 286 281 282 276 281 278 277 267 277 273 259 264
318 321 321 320 321 320 320 320 321 323 324 326 327 323 322 321 323 322 325 328 326 324 316 315 328 319 312 298 307 293 289 293 292 289 294 297 293 287 280 272 297 269 265 264 280 263 265
Height
5823 5822 5820 5817 5815 5813 5810 5807 5805 5802 5800 5797 5795 5792 5789 5786 5784 5781 5778 5775 5773 5771 5768 5765 5763 5759 5757 5757 5758 5751 5750 5749 5748 5747 5745 5744 5742 5739 5739 5739 5736 5735 5739 5736 5736 5735 5733
5823 5821 5819 5816 5814 5811 5809 5805 5802 5800 5797 5794 5791 5788 5785 5783 5780 5777 5774 5771 5768 5765 5762 5760 5756 5753 5751 5752 5749 5746 5744 5742 5740 5740 5739 5738 5736 5733 5730 5731 5730 5728 5730 5730 5730 5729 5725
5822 5819 5816 5814 5811 5808 5805 5802 5799 5796 5793 5790 5787 5784 5781 5778 5776 5772 5768 5766 5763 5760 5756 5753 5749 5746 5745 5744 5741 5738 5737 5735 5734 5732 5730 5729 5727 5725 5722 5723 5724 5721 5719 5720 5723 5722 5717
5820 5817 5814 5812 5809 5806 5802 5799 5796 5792 5788 5784 5781 5777 5775 5772 5769 5765 5761 5759 5756 5753 5750 5746 5742 5739 5738 5737 5733 5731 5728 5727 5725 5723 5722 5721 5719 5716 5715 5713 5715 5711 5709 5711 5714 5711 5708
5818 5815 5812 5809 5806 5802 5798 5794 5790 5786 5782 5778 5775 5771 5767 5763 5762 5758 5753 5750 5747 5745 5741 5737 5735 5731 5731 5729 5725 5722 5720 5719 5716 5715 5713 5711 5709 5706 5705 5706 5704 5700 5701 5696 5698 5698 5698
5815 5813 5809 5806 5803 5799 5794 5790 5786 5781 5776 5771 5767 5763 5759 5754 5752 5750 5745 5741 5738 5736 5733 5729 5726 5725 5722 5720 5717 5714 5712 5709 5706 5704 5703 5702 5698 5694 5694 5697 5693 5691 5685 5685 5686 5685 5690
5813 5810 5807 5803 5799 5795 5791 5786 5781 5775 5771 5765 5760 5755 5751 5745 5742 5739 5737 5733 5730 5727 5724 5720 5717 5714 5710 5709 5707 5705 5701 5699 5696 5695 5693 5689 5687 5683 5686 5683 5680 5679 5676 5675 5673 5674 5675
5809 5807 5804 5800 5795 5791 5787 5781 5776 5770 5764 5758 5753 5748 5742 5736 5734 5731 5727 5723 5719 5715 5717 5710 5706 5703 5701 5698 5696 5693 5691 5689 5685 5683 5679 5677 5675 5675 5672 5670 5667 5666 5666 5664 5664 5661 5659
5806 5802 5799 5795 5791 5787 5782 5776 5769 5764 5758 5752 5746 5741 5735 5729 5724 5720 5716 5712 5708 5703 5700 5702 5697 5692 5689 5687 5683 5681 5678 5675 5673 5670 5667 5664 5664 5660 5659 5657 5654 5655 5651 5651 5650 5648 5646
5802 5799 5795 5790 5785 5780 5775 5769 5762 5756 5750 5744 5737 5733 5728 5722 5717 5709 5705 5701 5696 5692 5688 5688 5686 5683 5679 5675 5673 5669 5666 5663 5660 5657 5654 5650 5651 5647 5643 5643 5641 5640 5640 5636 5637 5634 5635
5796 5793 5789 5784 5779 5773 5767 5761 5755 5748 5741 5735 5729 5722 5718 5711 5709 5703 5698 5692 5687 5683 5677 5675 5672 5668 5665 5663 5660 5656 5652 5649 5646 5643 5641 5639 5636 5634 5632 5631 5626 5628 5626 5624 5623 5622 5620
5790 5786 5782 5778 5772 5766 5760 5753 5746 5740 5733 5726 5720 5712 5708 5703 5697 5692 5687 5682 5676 5672 5662 5662 5657 5652 5648 5645 5641 5638 5636 5634 5631 5625 5623 5624 5619 5619 5618 5615 5613 5612 5613 5611 5609 5608 5604
5784 5779 5775 5769 5763 5758 5751 5745 5738 5731 5724 5717 5711 5705 5698 5692 5688 5681 5675 5669 5665 5656 5652 5647 5640 5635 5630 5625 5621 5618 5616 5614 5613 5608 5606 5603 5602 5601 5601 5599 5598 5598 5598 5596 5593 5588 5592
5776 5772 5767 5761 5754 5749 5743 5736 5728 5721 5715 5709 5701 5695 5688 5682 5675 5668 5662 5656 5647 5643 5631 5626 5620 5614 5608 5603 5598 5593 5591 5591 5591 5587 5584 5583 5583 5582 5587 5586 5582 5581 5581 5580 5575 5579 5580
5768 5763 5757 5751 5745 5740 5732 5725 5717 5710 5703 5697 5693 5685 5678 5670 5662 5654 5647 5638 5629 5620 5612 5601 5596 5588 5585 5576 5572 5568 5567 5566 5566 5563 5562 5561 5559 5560 5563 5564 5566 5568 5561 5572 5559 5563 5560
5759 5754 5748 5742 5736 5727 5720 5712 5704 5697 5689 5683 5677 5670 5663 5655 5646 5638 5628 5618 5602 5593 5582 5574 5569 5565 5560 5557 5548 5545 5546 5544 5540 5543 5541 5541 5534 5543 5538 5542 5546 5543 5547 5545 5545 5543 5542
5750 5744 5738 5731 5724 5715 5707 5699 5690 5683 5675 5668 5660 5651 5641 5631 5620 5609 5599 5587 5575 5567 5556 5550 5543 5534 5533 5529 5523 5523 5521 5521 5513 5516 5517 5517 5512 5527 5514 5521 5526 5524 5524 5523 5524 5521 5525
5741 5734 5727 5719 5710 5702 5692 5684 5675 5667 5659 5649 5643 5632 5621 5607 5594 5578 5568 5557 5544 5536 5528 5518 5509 5504 5499 5498 5494 5494 5494 5495 5490 5490 5495 5496 5490 5490 5496 5499 5500 5500 5501 5503 5499 5505 5505
5730 5724 5715 5707 5697 5688 5678 5669 5660 5650 5640 5632 5620 5609 5596 5581 5564 5552 5538 5527 5515 5503 5495 5487 5480 5477 5476 5474 5471 5474 5474 5472 5472 5474 5474 5475 5474 5473 5476 5481 5480 5480 5485 5486 5487 5490 5493
5719 5712 5703 5694 5684 5674 5664 5653 5643 5631 5619 5608 5596 5582 5571 5556 5541 5525 5510 5499 5489 5483 5475 5471 5465 5464 5461 5460 5462 5456 5458 5458 5459 5459 5461 5460 5461 5461 5464 5465 5466 5464 5469 5472 5473 5474 5479
5708 5700 5690 5679 5669 5660 5649 5637 5624 5612 5599 5585 5572 5557 5540 5527 5519 5501 5488 5479 5472 5469 5466 5462 5458 5456 5454 5450 5449 5447 5445 5443 5444 5448 5448 5447 5443 5446 5445 5448 5451 5454 5458 5457 5457 5462 5460
5696 5686 5677 5667 5656 5644 5632 5617 5603 5592 5576 5562 5548 5532 5522 5506 5491 5481 5471 5467 5463 5461 5458 5457 5450 5449 5447 5442 5438 5434 5432 5431 5430 5434 5434 5435 5435 5433 5435 5437 5440 5443 5446 5446 5447 5448 5446
5683 5673 5664 5653 5641 5628 5614 5600 5586 5571 5555 5540 5523 5514 5498 5487 5479 5469 5462 5455 5454 5452 5455 5448 5445 5442 5439 5436 5432 5428 5424 5423 5422 5421 5424 5425 5425 5425 5425 5427 5427 5430 5435 5437 5437 5438 5437
5669 5659 5648 5638 5626 5612 5597 5582 5567 5552 5536 5522 5511 5500 5492 5482 5470 5462 5456 5449 5446 5447 5445 5443 5438 5436 5434 5429 5426 5421 5417 5415 5413 5413 5415 5417 5418 5417 5417 5418 5418 5420 5421 5424 5424 5424 5424
5656 5646 5635 5623 5609 5595 5579 5563 5548 5535 5523 5511 5502 5493 5486 5479 5467 5461 5454 5447 5442 5443 5441 5437 5433 5429 5423 5420 5418 5416 5412 5408 5406 5406 5408 5409 5410 5411 5411 5413 5411 5411 5412 5414 5412 5413 5412
5644 5633 5620 5607 5593 5578 5563 5548 5535 5524 5515 5505 5495 5487 5481 5474 5466 5456 5451 5446 5442 5439 5439 5434 5429 5423 5419 5415 5413 5411 5408 5406 5404 5404 5404 5404 5405 5407 5408 5405 5403 5404 5403 5404 5402 5402 5403
5631 5619 5606 5592 5577 5563 5550 5537 5527 5516 5506 5498 5489 5483 5476 5469 5464 5456 5447 5440 5437 5434 5430 5426 5423 5420 5414 5412 5409 5408 5407 5405 5404 5403 5401 5401 5401 5401 5401 5399 5397 5397 5396 5395 5395 5399 5397
5617 5604 5590 5577 5564 5550 5538 5527 5517 5508 5499 5491 5485 5477 5470 5465 5460 5452 5446 5439 5434 5430 5425 5422 5419 5415 5412 5409 5408 5406 5404 5402 5401 5400 5398 5398 5397 5396 5394 5392 5390 5389 5390 5390 5388 5386 5387
5603 5589 5577 5563 5549 5537 5528 5519 5510 5501 5494 5487 5480 5471 5464 5458 5454 5448 5442 5437 5431 5427 5422 5419 5416 5411 5409 5407 5406 5403 5401 5398 5397 5395 5393 5392 5390 5388 5387 5384 5381 5380 5380 5379 5379 5378 5378